Port Angeles, WA

7:32 AM PST on December 07, 2016 (GMT -0800)
Lake Farm Road | | Change Station
Active Advisory: Winter Storm Watch

Elev 323 ft 48.11 °N, 123.41 °W | Updated 10 seconds ago

Partly Cloudy
Partly Cloudy
24.6 °F
Feels Like 25 °F
N
1.7
Wind Variable Wind from SW

Today
High -- | Low -- °F
--% Chance of Precip.
Yesterday
High -- | Low -- °F
Precip. -- in
Pressure 30.48 in
Visibility 10.0 miles
Clouds Few 3800 ft
Windchill 25 °F
Dew Point 22 °F
Humidity 91%
Rainfall 0.00 in
Snow Depth Not available.
7:50 AM 4:20 PM
First Quarter, 53% visible
METAR KCLM 071453Z AUTO 05006G15KT 10SM FEW038 M01/M08 A3046 RMK AO2 SLP319 T10111083 50002
Pressure 30.48 in
Visibility 10.0 miles
Clouds Few 3800 ft
Windchill 25 °F
Dew Point 22 °F
Humidity 91%
Rainfall 0.00 in
Snow Depth Not available.
7:50 AM 4:20 PM
First Quarter, 53% visible
METAR KCLM 071453Z AUTO 05006G15KT 10SM FEW038 M01/M08 A3046 RMK AO2 SLP319 T10111083 50002

10-Day Weather Forecast

Almanac

Astronomy

Dec. 07, 2016 Rise Set
Actual Time
Civil Twilight
Nautical Twilight
Astronomical Twilight
Moon
Length of Visible Light
Length of Day
Tomorrow will be .
, % of the Moon is Illuminated

Today's Extremes

State Highs State Lows

Community

WunderPhotos

Upload Photos

1,956,118 photos uploaded!

WunderBlog® & News

Nearby

Air Quality

  Air Quality AQ Index Pollutant
Not available.

Snow Depth

Station Depth Elevation

Earthquake Activity

City Distance Mag. Time & Date
Minimum magnitude displayed is 2.5.

Coastal Water Temperatures

Place Temperature

Stations

Nearby Weather Stations

Station Location Temp. Windchill Dew Point Humidity Wind Precip. Elev Updated Type
                   

Watches & Warnings

Winter Storm Watch
Issued: 4:53 AM PST Dec. 7, 2016 – National Weather Service

... Winter Storm Watch remains in effect from Thursday morning
through Friday morning...

* timing... a weather system will move from south to north over
western Washington on Thursday and Thursday night. With cold air
already in place at the surface when precipitation begins... the
precipitation is likely to begin as snow and then change to
rain. Up to 12 hours of snowfall is possible at most locations
in the interior lowlands... with snow accumulations of four
inches or more possible. The Hood Canal area... where strong east
winds will add an upslope component to the snow... could see
accumulations exceed seven inches. The onset of snow... and the
change to rain... will be earlier in the south and later in the
north. It is expected that by Friday morning the transition from
snow to rain will have occurred everywhere.

* Main impact... travel will be greatly affected as roadway surface
conditions may become slippery.

Precautionary/preparedness actions...

A Winter Storm Watch means there is a potential for significant
snow... sleet... or ice accumulations that may impact travel. Continue
to monitor the latest forecasts.